FW6620 Weather Reports


Display with metric or nautical units.
time (UTC)temp
F
wind
direction
speed
MPH
gust
MPH
rain 1hr
in
rain 24hr
in
rain mn
in
humidity
%
barometer
mb
20260505053109 72 17 0.0 6.0 0.00 0.02 0.00 85 1010.0
20260505052545 72 14 1.0 7.0 0.00 0.02 0.00 85 1009.9
20260505052045 72 0 1.0 7.0 0.00 0.02 0.00 85 1009.9
20260505051552 72 12 2.0 6.0 0.00 0.02 0.00 85 1009.9
20260505051045 72 20 1.0 6.0 0.00 0.02 0.00 85 1009.9
20260505050544 72 0 2.0 7.0 0.00 0.02 0.00 85 1009.8
20260505041611 73 31 0.0 6.0 0.00 0.02 0.02 83 1009.8
20260505041045 73 0 2.0 8.0 0.00 0.02 0.02 83 1009.8
20260505040546 73 45 1.0 8.0 0.00 0.02 0.02 83 1009.9
20260505040056 74 22 2.0 5.0 0.00 0.02 0.02 82 1009.8
20260505035545 74 0 1.0 5.0 0.00 0.02 0.02 82 1010.0
20260505035050 74 0 2.0 6.0 0.00 0.02 0.02 82 1009.9
20260505034558 74 24 1.0 6.0 0.00 0.02 0.02 81 1009.9
20260505034047 74 0 1.0 6.0 0.00 0.02 0.02 81 1009.8
20260505033545 74 39 1.0 8.0 0.00 0.02 0.02 81 1009.7
20260505033053 74 25 1.0 8.0 0.00 0.02 0.02 81 1009.9
20260505032548 74 16 1.0 7.0 0.00 0.02 0.02 81 1009.8
20260505032044 74 27 0.0 4.0 0.00 0.02 0.02 81 1009.9
20260505031602 75 0 0.0 4.0 0.00 0.02 0.02 80 1009.8
20260505031048 75 102 1.0 4.0 0.00 0.02 0.02 80 1009.9
20260505030548 75 9 0.0 4.0 0.00 0.02 0.02 80 1009.8
20260505030048 75 0 1.0 4.0 0.00 0.02 0.02 79 1009.8
20260505025545 75 16 1.0 6.0 0.00 0.02 0.02 79 1009.8
20260505025047 75 0 1.0 6.0 0.00 0.02 0.02 79 1009.8
20260505024549 75 0 0.0 5.0 0.00 0.02 0.02 79 1009.7
20260505024045 75 0 0.0 5.0 0.00 0.02 0.02 78 1009.8
20260505023545 76 18 1.0 5.0 0.00 0.02 0.02 78 1009.8
20260505023057 76 18 1.0 6.0 0.00 0.02 0.02 78 1009.7
20260505022545 76 0 2.0 6.0 0.00 0.02 0.02 78 1009.7
20260505022045 76 19 0.0 3.0 0.00 0.02 0.02 78 1009.6
20260505021555 76 0 0.0 3.0 0.00 0.02 0.02 77 1009.6
20260505021044 76 0 0.0 4.0 0.00 0.02 0.02 77 1009.7
20260505020545 76 24 0.0 4.0 0.00 0.02 0.02 76 1009.6
20260505020049 76 12 0.0 4.0 0.00 0.02 0.02 76 1009.5
20260505015548 77 12 1.0 4.0 0.00 0.02 0.02 75 1009.5
20260505015046 77 0 0.0 6.0 0.00 0.02 0.02 75 1009.6
20260505014553 77 12 0.0 7.0 0.00 0.02 0.02 75 1009.4
20260505014046 77 6 2.0 7.0 0.00 0.02 0.02 74 1009.4
20260505013545 77 0 0.0 5.0 0.00 0.02 0.02 73 1009.5
20260505013047 77 0 1.0 5.0 0.00 0.02 0.02 73 1009.4
20260505012545 78 0 0.0 5.0 0.00 0.02 0.02 72 1009.3
20260505012048 78 0 0.0 5.0 0.00 0.02 0.02 71 1009.4
20260505011549 78 28 1.0 5.0 0.00 0.02 0.02 71 1009.3
20260505011048 78 20 0.0 4.0 0.00 0.02 0.02 70 1009.2
20260505010545 78 22 0.0 4.0 0.00 0.02 0.02 69 1009.2
20260505010052 79 0 0.0 5.0 0.00 0.02 0.02 69 1009.3
20260505005548 79 21 1.0 8.0 0.00 0.02 0.02 69 1009.2
20260505005048 79 29 1.0 8.0 0.00 0.02 0.02 68 1009.2
20260505004549 79 16 2.0 6.0 0.00 0.02 0.02 68 1009.3
20260505004047 79 11 1.0 6.0 0.00 0.02 0.02 68 1009.2
20260505003547 79 0 1.0 6.0 0.00 0.02 0.02 68 1009.1
20260505003055 79 18 1.0 8.0 0.00 0.02 0.02 67 1009.1
20260505002550 79 20 1.0 8.0 0.00 0.02 0.02 67 1009.0
20260505002051 79 17 2.0 10.0 0.00 0.02 0.02 67 1008.8
20260505001554 79 34 1.0 10.0 0.00 0.02 0.02 67 1008.9
20260505001048 80 0 2.0 6.0 0.00 0.02 0.02 66 1009.0
20260505000547 80 25 2.0 7.0 0.01 0.02 0.02 66 1009.0
20260505000058 80 29 1.0 7.0 0.01 0.02 0.02 66 1009.2
20260504235548 80 0 1.0 7.0 0.01 0.02 0.02 65 1009.3
20260504235048 80 35 0.0 7.0 0.01 0.02 0.02 65 1009.3
20260504234557 80 17 1.0 4.0 0.01 0.02 0.02 65 1009.4
20260504234048 80 0 0.0 7.0 0.01 0.02 0.02 65 1009.4
20260504233548 80 0 2.0 8.0 0.01 0.02 0.02 65 1009.5
20260504233050 80 12 2.0 11.0 0.01 0.02 0.02 65 1009.5
20260504232548 80 37 2.0 11.0 0.01 0.02 0.02 66 1009.5
20260504232046 80 16 2.0 9.0 0.01 0.02 0.02 65 1009.6
20260504231559 80 28 0.0 10.0 0.01 0.02 0.02 67 1009.6
20260504231047 80 8 2.0 10.0 0.01 0.02 0.02 65 1009.6
20260504230548 81 33 1.0 8.0 0.00 0.01 0.01 65 1009.7
20260504230058 81 22 2.0 8.0 0.00 0.01 0.01 64 1009.7
20260504225548 81 25 2.0 9.0 0.00 0.02 0.01 64 1009.9
20260504225046 81 28 2.0 9.0 0.00 0.02 0.01 64 1010.0
20260504224551 81 33 2.0 9.0 0.00 0.02 0.01 64 1010.0
20260504224048 81 24 1.0 6.0 0.00 0.02 0.01 64 1010.0
20260504223548 82 18 2.0 6.0 0.00 0.02 0.01 64 1009.9
20260504223051 82 0 1.0 7.0 0.00 0.02 0.01 64 1010.0
20260504222548 82 28 1.0 7.0 0.00 0.02 0.01 63 1010.1
20260504222048 82 18 1.0 6.0 0.00 0.02 0.01 64 1010.1
20260504221557 82 31 2.0 7.0 0.00 0.02 0.01 63 1010.0
20260504221049 82 22 2.0 7.0 0.00 0.02 0.01 64 1010.1
20260504220548 81 20 1.0 6.0 0.00 0.02 0.01 64 1010.2
20260504220054 81 18 0.0 7.0 0.00 0.02 0.01 64 1010.1
20260504215548 82 9 3.0 8.0 0.00 0.02 0.01 63 1010.2
20260504215111 82 27 1.0 8.0 0.00 0.02 0.01 63 1010.3
20260504214555 82 48 1.0 6.0 0.00 0.02 0.01 64 1010.2
20260504214047 82 0 1.0 7.0 0.00 0.02 0.01 63 1010.2
20260504213547 82 24 2.0 7.0 0.00 0.02 0.01 63 1010.2
20260504213056 82 85 1.0 9.0 0.00 0.02 0.01 63 1010.3
20260504212547 82 35 0.0 9.0 0.00 0.02 0.01 64 1010.6
20260504212047 82 33 1.0 6.0 0.00 0.02 0.01 64 1010.6
20260504211553 82 0 1.0 6.0 0.00 0.02 0.01 64 1010.7
20260504211052 82 12 2.0 6.0 0.00 0.02 0.01 63 1010.6
20260504210548 82 20 1.0 9.0 0.00 0.02 0.01 64 1010.9
20260504210109 81 17 2.0 9.0 0.00 0.02 0.01 64 1010.9
20260504205550 81 12 1.0 10.0 0.00 0.02 0.01 64 1011.0
20260504205044 81 16 2.0 10.0 0.00 0.02 0.01 64 1011.0
20260504204602 81 18 2.0 9.0 0.00 0.02 0.01 64 1011.0
20260504204048 81 0 1.0 9.0 0.00 0.02 0.01 64 1011.1
20260504203548 81 23 2.0 9.0 0.00 0.02 0.01 64 1011.3
20260504203058 81 0 2.0 8.0 0.00 0.02 0.01 63 1011.5
20260504202548 81 22 2.0 8.0 0.00 0.02 0.01 64 1011.5
20260504202047 81 24 1.0 8.0 0.00 0.02 0.01 66 1011.6
20260504201554 81 37 1.0 8.0 0.00 0.02 0.01 64 1011.7
20260504201047 81 22 2.0 8.0 0.00 0.02 0.01 64 1011.8
20260504200547 81 0 1.0 9.0 0.00 0.02 0.01 64 1012.0
20260504200057 81 24 1.0 9.0 0.00 0.02 0.01 65 1012.0
20260504195548 81 14 2.0 9.0 0.00 0.02 0.01 66 1012.1
20260504195047 80 0 1.0 8.0 0.00 0.02 0.01 65 1012.2
20260504194609 80 14 0.0 8.0 0.00 0.02 0.01 65 1012.4
20260504194048 80 21 1.0 6.0 0.00 0.02 0.01 64 1012.4
20260504193548 80 15 2.0 10.0 0.00 0.02 0.01 65 1012.4
20260504193055 80 40 2.0 9.0 0.00 0.02 0.01 64 1012.5
20260504192548 80 24 1.0 7.0 0.00 0.02 0.01 65 1012.5
20260504192048 80 20 2.0 9.0 0.00 0.02 0.01 65 1012.6
20260504191554 80 4 2.0 9.0 0.00 0.02 0.01 64 1012.9
20260504191048 80 18 3.0 7.0 0.00 0.02 0.01 64 1013.0
20260504190545 80 31 1.0 10.0 0.00 0.02 0.01 64 1012.9
20260504190125 80 16 2.0 10.0 0.00 0.02 0.01 64 1012.9
20260504185546 80 49 2.0 6.0 0.00 0.02 0.01 67 1013.0
20260504185046 80 12 1.0 9.0 0.00 0.02 0.01 65 1013.0
20260504184558 80 31 3.0 9.0 0.00 0.02 0.01 64 1013.0
20260504184047 80 13 1.0 8.0 0.00 0.02 0.01 65 1013.1
20260504183547 80 81 2.0 8.0 0.00 0.02 0.01 65 1013.1
20260504183058 79 0 1.0 8.0 0.00 0.02 0.01 66 1013.4
20260504182547 79 30 3.0 8.0 0.00 0.02 0.01 66 1013.4
20260504182048 78 18 1.0 5.0 0.00 0.02 0.01 68 1013.6
20260504181600 78 0 1.0 5.0 0.00 0.02 0.01 69 1013.7
20260504181048 77 16 1.0 6.0 0.00 0.02 0.01 71 1013.6
20260504180546 77 59 1.0 6.0 0.00 0.02 0.01 70 1013.6
20260504180144 76 22 1.0 6.0 0.00 0.02 0.01 70 1013.6
20260504175547 76 18 1.0 8.0 0.00 0.02 0.01 71 1013.7
20260504175049 76 14 1.0 8.0 0.00 0.02 0.01 71 1013.9
20260504174556 75 25 0.0 5.0 0.00 0.02 0.01 72 1013.9
20260504174049 75 0 0.0 4.0 0.00 0.02 0.01 71 1013.9
20260504173546 75 26 1.0 5.0 0.00 0.02 0.01 71 1014.4
20260504173127 75 0 0.0 5.0 0.00 0.02 0.01 71 1014.5
20260504172547 75 0 1.0 6.0 0.00 0.02 0.01 71 1014.5
20260504172047 75 19 1.0 6.0 0.00 0.02 0.01 71 1014.6
20260504171558 75 103 2.0 11.0 0.00 0.02 0.01 71 1014.6
20260504171047 75 27 2.0 11.0 0.00 0.02 0.01 72 1014.6
20260504170550 74 46 1.0 10.0 0.00 0.02 0.01 73 1014.6
20260504151047 70 24 0.0 7.0 0.00 0.03 0.01 78 1015.4
20260504150547 70 0 2.0 7.0 0.00 0.03 0.01 77 1015.6
20260504141047 66 56 0.0 7.0 0.00 0.03 0.01 81 1015.5
20260504140547 66 0 2.0 7.0 0.00 0.03 0.01 82 1015.7
20260504140109 65 0 1.0 4.0 0.00 0.03 0.01 83 1015.7
20260504130546 61 0 0.0 3.0 0.00 0.03 0.01 89 1015.7
20260504120112 59 0 0.0 0.0 0.00 0.03 0.01 88 1015.0
20260504110547 60 0 0.0 0.0 0.00 0.03 0.01 87 1015.4
20260504100549 61 0 0.0 2.0 0.01 0.04 0.01 85 1015.5
20260504081552 63 0 0.0 3.0 0.00 0.03 0.00 80 1016.0
20260504081047 63 0 0.0 3.0 0.00 0.03 0.00 79 1016.2
20260504080546 64 0 0.0 3.0 0.00 0.03 0.00 79 1016.1